Location: South Cushing
(43.9686°N, 69.2945°W)
Time: 03:19:15
(UTC-05:00)

Tiangong 2 - Visible Passes

Search period start: 19 November 2017 00:00
Search period end: 29 November 2017 00:00
Orbit: 386 x 391 km, 42.8° (Epoch: 18 November)

Date Brightness Start Highest point End Pass type
(mag) Time Alt. Az. Time Alt. Az. Time Alt. Az.
25 Nov 4.3 05:45:24 10° S 05:46:37 12° SSE 05:47:50 10° SE visible
27 Nov 3.7 05:24:21 10° SSW 05:26:45 19° SSE 05:29:08 10° ESE visible
28 Nov 4.0 04:28:06 12° SSE 04:28:43 12° SSE 04:30:09 10° ESE visible
28 Nov 2.2 06:01:59 10° SW 06:05:02 43° SSE 06:08:06 10° E visible
